Retour au catalogue

COSMOS 1275 DEB

ActifPO
NORAD 42144·DEBRIS·🇷🇺 Russia

Lancé Jun 4, 1981 depuis Plesetsk Cosmodrome

Loading…

Prochains Passages (prochaines 24 heures)

TLE

FraisSource: Space-Track

Époque: Sep 11, 2026, 17:16 UTC

1 42144U 81053RG  26254.71958787  .00000651  00000-0  51644-3 0  9998
2 42144  82.8046 237.4522 0057957 187.4173 348.4674 13.89162459647601

Suivez COSMOS 1275 DEB en temps réel avec AllMySat

Download on the App Store